Location: Homewood
(41.1836°S, 175.9581°E)
Time: 10:09:44
(UTC+00:00)

DELTA 2 R/B (1) - Pass Details

Date: 18 April 2024
Orbit: 789 x 801 km, 39.6° (Epoch: 24 May)

Event Time Altitude Azimuth Distance (km) Brightness Sun altitude
Exits shadow 17:44:30 18° 272° (W) 1,848 4.8 -13.1°
Maximum altitude 17:48:23 50° 340° (NNW) 1,004 4.0 -12.4°
Drops below altitude 10° 17:53:44 10° 54° (NE) 2,354 7.0 -11.4°
Sets 17:56:16 0° 59° (ENE) 3,280 8.1 -10.9°
